CW7253 Weather Reports


time (UTC)temp
C
wind
direction
speed
KPH
gust
KPH
rain 1hr
cm
rain 24hr
cm
rain mn
cm
humidity
%
barometer
mb
20260507075403 10 5 0.0 0.0 0.00 0.99 0.10 88 1010.2
20260507074902 10 5 0.0 0.0 0.03 0.99 0.10 89 1010.1
20260507074403 10 5 0.0 0.0 0.05 0.99 0.10 90 1010.1
20260507073902 10 5 0.0 0.0 0.05 0.99 0.10 91 1010.2
20260507073403 10 5 0.0 0.0 0.05 0.99 0.10 91 1010.3
20260507072903 11 5 0.0 0.0 0.05 0.99 0.10 92 1010.3
20260507072405 11 5 0.0 0.0 0.05 0.99 0.10 93 1010.3
20260507071906 11 5 0.0 0.0 0.05 0.99 0.10 93 1010.2
20260507071631 11 5 0.0 0.0 0.05 0.99 0.10 93 1010.2
20260507070848 11 5 0.0 0.0 0.05 0.99 0.10 93 1010.4
20260507070607 11 5 0.0 0.0 0.05 0.99 0.10 93 1010.4
20260507065824 11 5 0.0 0.0 0.05 0.99 0.10 93 1010.3
20260507065312 11 5 0.0 0.0 0.03 0.97 0.10 92 1010.4
20260507065031 11 5 0.0 0.0 0.03 0.97 0.08 93 1010.3
20260507064250 11 5 0.0 0.0 0.00 0.94 0.05 92 1010.3
20260507063740 11 5 0.0 0.0 0.00 0.94 0.05 92 1010.5
20260507063501 11 5 0.0 0.0 0.00 0.94 0.05 92 1010.3
20260507062726 11 5 0.0 0.0 0.00 0.94 0.05 92 1010.3
20260507062216 11 5 0.0 0.0 0.00 0.94 0.05 92 1010.4
20260507061704 11 5 0.0 0.0 0.00 0.94 0.05 92 1010.4
20260507061158 11 5 0.0 0.0 0.00 0.94 0.05 93 1010.4
20260507060644 11 5 0.0 0.0 0.00 0.94 0.05 92 1010.4
20260507060144 11 5 0.0 0.0 0.00 0.94 0.05 92 1010.4
20260507055635 11 5 0.0 0.0 0.00 0.94 0.05 92 1010.3
20260507055132 11 5 0.0 0.0 0.00 0.94 0.05 92 1010.3
20260507054857 11 5 0.0 0.0 0.00 0.94 0.05 92 1010.3
20260507054120 11 5 0.0 0.0 0.00 0.94 0.05 92 1010.2
20260507053845 11 5 0.0 0.0 0.03 0.94 0.05 92 1010.1
20260507053102 11 5 0.0 0.0 0.03 0.94 0.05 93 1010.2
20260507052602 11 5 0.0 0.0 0.03 0.94 0.05 93 1010.2
20260507052055 11 5 0.0 0.0 0.05 0.94 0.05 93 1010.2
20260507051550 11 5 0.0 0.0 0.05 0.94 0.05 94 1010.4
20260507051042 11 5 0.0 0.0 0.05 0.94 0.05 93 1010.2
20260507050536 11 5 0.0 0.0 0.05 0.94 0.05 93 1010.1
20260507050023 11 5 0.0 0.0 0.05 0.94 0.05 93 1010.2
20260507045751 11 5 0.0 0.0 0.05 0.94 0.05 93 1010.3
20260507045012 12 5 0.0 0.0 0.05 0.94 0.05 93 1010.3
20260507044736 12 5 0.0 0.0 0.05 0.94 0.05 92 1010.4
20260507043953 12 5 0.0 0.0 0.05 0.94 0.05 92 1010.3
20260507043449 12 5 0.0 0.0 0.03 0.91 0.03 91 1010.2
20260507042941 12 5 0.0 0.0 0.03 0.91 0.03 90 1010.1
20260507042436 12 5 0.0 0.0 0.03 0.91 0.03 90 1010.2
20260507041923 12 5 0.0 0.0 0.00 0.89 0.00 90 1009.9
20260507041420 12 5 0.0 0.0 0.00 0.89 0.00 89 1009.9
20260507040913 12 5 0.0 0.0 0.00 0.89 0.00 89 1010.2
20260507040406 12 5 0.0 0.0 0.00 0.89 0.00 89 1010.1
20260507035857 12 5 0.0 1.6 0.00 0.89 0.89 87 1010.0
20260507035351 12 5 0.0 1.6 0.00 0.89 0.89 88 1009.7
20260507035108 13 5 0.0 0.0 0.00 0.89 0.89 88 1010.0
20260507034334 13 5 0.0 0.0 0.00 0.89 0.89 89 1009.9
20260507033829 13 5 0.0 0.0 0.00 0.89 0.89 88 1010.0
20260507033322 13 5 0.0 6.4 0.00 0.89 0.89 89 1009.9
20260507032819 13 5 1.6 8.0 0.00 0.89 0.89 88 1009.5
20260507032544 13 5 1.6 8.0 0.00 0.89 0.89 88 1009.4
20260507031807 13 338 0.0 11.3 0.00 0.89 0.89 88 1009.8
20260507031756 13 338 0.0 11.3 0.00 0.89 0.89 88 1009.8
20260507030755 13 256 0.0 0.0 0.00 0.89 0.89 89 1009.9
20260507030520 13 256 0.0 0.0 0.00 0.89 0.89 88 1009.9
20260507025742 13 256 0.0 0.0 0.00 0.89 0.89 88 1009.7
20260507025508 13 256 0.0 6.4 0.00 0.89 0.89 88 1009.6
20260507024726 13 256 0.0 6.4 0.00 0.89 0.89 88 1009.8
20260507024454 13 256 0.0 0.0 0.00 0.89 0.89 89 1009.8
20260507023715 14 256 0.0 1.6 0.00 0.89 0.89 89 1009.7
20260507023204 14 256 0.0 8.0 0.00 0.89 0.89 89 1009.6
20260507022703 14 252 0.0 8.0 0.00 0.89 0.89 89 1009.6
20260507022428 14 252 0.0 1.6 0.00 0.89 0.89 90 1009.5
20260507021646 15 252 0.0 0.0 0.00 0.89 0.89 89 1009.3
20260507021145 15 252 0.0 6.4 0.00 0.89 0.89 89 1009.3
20260507020631 15 252 0.0 6.4 0.00 0.89 0.89 89 1009.3
20260507020132 15 252 0.0 0.0 0.00 0.89 0.89 88 1009.5
20260507015627 15 252 0.0 6.4 0.00 0.89 0.89 87 1009.4
20260507015121 15 252 0.0 6.4 0.00 0.89 0.89 87 1009.3
20260507014615 15 252 0.0 0.0 0.00 0.89 0.89 88 1009.4
20260507014606 15 252 0.0 1.6 0.00 0.89 0.89 87 1009.5
20260507013603 15 252 0.0 1.6 0.00 0.89 0.89 87 1009.5
20260507013057 15 252 0.0 8.0 0.00 0.89 0.89 88 1009.5
20260507012815 15 252 1.6 8.0 0.00 0.89 0.89 87 1009.6
20260507012041 15 252 0.0 8.0 0.00 0.89 0.89 87 1009.5
20260507011533 15 252 0.0 1.6 0.00 0.89 0.89 88 1009.4
20260507011027 15 252 0.0 0.0 0.00 0.89 0.89 88 1009.3
20260507010742 15 252 0.0 4.8 0.00 0.89 0.89 88 1009.2
20260507010244 15 252 0.0 9.7 0.00 0.89 0.89 88 1009.3
20260507005506 15 252 0.0 9.7 0.00 0.89 0.89 88 1009.0
20260507005001 16 252 0.0 6.4 0.00 0.89 0.89 88 1008.9
20260507004455 16 252 0.0 6.4 0.00 0.89 0.89 88 1008.9
20260507003948 16 252 0.0 12.9 0.00 0.89 0.89 88 1008.9
20260507003442 16 252 0.0 12.9 0.00 0.89 0.89 88 1008.7
20260507002930 16 252 0.0 8.0 0.00 0.89 0.89 89 1008.8
20260507002431 16 252 0.0 9.7 0.00 0.89 0.89 90 1008.5
20260507001925 16 253 0.0 9.7 0.00 0.89 0.89 91 1008.7
20260507001418 16 253 0.0 9.7 0.05 0.89 0.89 91 1008.5
20260507000913 16 253 0.0 4.8 0.08 0.89 0.89 92 1008.2
20260507000402 16 253 0.0 4.8 0.08 0.89 0.89 93 1008.2
20260506235901 16 253 0.0 0.0 0.08 0.89 0.89 93 1008.1
20260506235350 16 253 0.0 0.0 0.08 0.89 0.89 94 1007.9
20260506235116 16 253 0.0 3.2 0.08 0.89 0.89 94 1007.8
20260506234339 16 253 0.0 3.2 0.08 0.89 0.89 93 1007.7
20260506233832 16 253 0.0 4.8 0.08 0.89 0.89 93 1007.6
20260506233320 17 253 1.6 11.3 0.08 0.89 0.89 93 1007.5
20260506232820 17 253 1.6 11.3 0.08 0.89 0.89 93 1007.5
20260506232315 17 253 0.0 12.9 0.08 0.89 0.89 94 1007.4
20260506231804 18 253 1.6 12.9 0.05 0.86 0.89 94 1007.5
20260506231302 18 249 0.0 4.8 0.00 0.81 0.84 94 1007.4
20260506230750 18 249 0.0 0.0 0.00 0.81 0.81 94 1007.1
20260506230250 18 249 0.0 8.0 0.00 0.81 0.81 94 1007.2
20260506225740 18 249 0.0 8.0 0.00 0.81 0.81 94 1007.2
20260506225238 18 248 0.0 6.4 0.00 0.81 0.81 94 1007.2
20260506224733 18 248 0.0 6.4 0.00 0.81 0.81 94 1007.1
20260506224227 18 247 0.0 3.2 0.00 0.81 0.81 93 1006.9
20260506223721 18 247 0.0 4.8 0.00 0.81 0.81 93 1006.9
20260506223440 18 247 0.0 4.8 0.00 0.81 0.81 93 1006.8
20260506222702 18 247 0.0 9.7 0.00 0.81 0.81 92 1006.8
20260506222203 18 247 0.0 9.7 0.00 0.81 0.81 92 1006.8
20260506221657 18 248 0.0 1.6 0.00 0.81 0.81 91 1006.8
20260506221151 19 248 0.0 0.0 0.00 0.81 0.81 91 1006.8
20260506220908 19 248 0.0 0.0 0.00 0.81 0.81 90 1006.7
20260506220138 19 248 0.0 0.0 0.00 0.81 0.81 90 1006.7
20260506215626 19 248 0.0 0.0 0.00 0.81 0.81 90 1006.6
20260506215126 19 248 0.0 6.4 0.00 0.81 0.81 90 1006.6
20260506214621 19 248 0.0 6.4 0.00 0.81 0.81 90 1006.6
20260506214345 19 248 0.0 4.8 0.00 0.81 0.81 90 1006.6
20260506213605 19 248 0.0 4.8 0.00 0.81 0.81 90 1006.4
20260506213058 19 248 0.0 4.8 0.00 0.81 0.81 89 1006.3
20260506212557 19 248 0.0 0.0 0.00 0.81 0.81 89 1006.4
20260506212051 19 248 0.0 9.7 0.00 0.81 0.81 90 1006.3
20260506211545 19 248 0.0 9.7 0.00 0.81 0.81 89 1006.3
20260506211038 19 248 0.0 6.4 0.00 0.81 0.81 90 1006.4
20260506210525 19 248 0.0 8.0 0.00 0.81 0.81 90 1006.4
20260506210027 19 248 0.0 8.0 0.00 0.81 0.81 89 1006.3
20260506205744 19 248 0.0 1.6 0.00 0.81 0.81 89 1006.3
20260506205014 19 248 1.6 9.7 0.00 0.81 0.81 89 1006.2
20260506204504 19 252 3.2 16.1 0.00 0.81 0.81 88 1006.2
20260506204003 20 252 3.2 16.1 0.00 0.81 0.81 88 1006.2
20260506203456 20 257 1.6 12.9 0.00 0.81 0.81 88 1006.2
20260506202944 20 266 1.6 12.9 0.00 0.81 0.81 88 1006.1
20260506202445 20 204 1.6 9.7 0.00 0.81 0.81 89 1006.2
20260506201939 20 203 1.6 9.7 0.00 0.81 0.81 90 1006.2
20260506201432 19 202 1.6 11.3 0.00 0.81 0.81 91 1006.1
20260506200926 19 202 0.0 11.3 0.00 0.81 0.81 90 1006.2
20260506200414 18 211 0.0 8.0 0.00 0.81 0.81 91 1006.2
20260506195914 18 211 0.0 8.0 0.00 0.81 0.81 91 1006.3
20260506195404 18 201 1.6 9.7 0.00 0.81 0.81 91 1006.4
20260506195134 18 236 1.6 12.9 0.00 0.81 0.81 91 1006.4
20260506194356 18 236 1.6 12.9 0.00 0.81 0.81 91 1006.4
20260506193851 18 220 1.6 9.7 0.00 0.81 0.81 92 1006.4
20260506193616 18 220 1.6 9.7 0.00 0.81 0.81 91 1006.3
20260506192832 18 220 0.0 4.8 0.00 0.81 0.81 92 1006.5
20260506192603 18 220 1.6 12.9 0.00 0.81 0.81 92 1006.3
20260506191827 18 220 1.6 12.9 0.00 0.81 0.81 92 1006.4
20260506191551 18 211 1.6 11.3 0.00 0.81 0.81 93 1006.3
20260506190815 18 211 1.6 11.3 0.00 0.81 0.81 94 1006.5
20260506190304 18 211 1.6 11.3 0.00 0.81 0.81 94 1006.5
20260506190034 17 208 0.0 3.2 0.00 0.81 0.81 96 1006.5
20260506185250 17 208 1.6 9.7 0.00 0.81 0.81 95 1006.5
20260506185021 17 208 1.6 11.3 0.00 0.81 0.81 95 1006.7
20260506184245 17 207 1.6 11.3 0.00 0.81 0.81 95 1006.7
20260506183739 17 207 1.6 6.4 0.00 0.81 0.81 96 1006.7
20260506183232 17 206 1.6 9.7 0.00 0.81 0.81 96 1006.8
20260506182719 17 206 1.6 11.3 0.00 0.81 0.81 96 1006.8
20260506182220 17 205 3.2 12.9 0.00 0.81 0.81 96 1006.9
20260506181715 17 206 3.2 12.9 0.00 0.81 0.81 96 1006.9
20260506181204 17 203 3.2 11.3 0.00 0.81 0.81 96 1006.9
20260506180703 17 202 3.2 11.3 0.00 0.81 0.81 97 1007.0
20260506180156 17 203 1.6 11.3 0.00 0.81 0.81 97 1007.0
20260506175651 17 203 1.6 11.3 0.00 0.81 0.81 98 1007.0
20260506175145 17 210 1.6 9.7 0.00 0.81 0.81 98 1007.1
20260506174642 17 210 1.6 9.7 0.00 0.81 0.81 97 1007.0
20260506174634 17 200 3.2 11.3 0.00 0.81 0.81 97 1007.0
20260506173622 17 191 3.2 11.3 0.00 0.81 0.81 97 1006.9
20260506173121 16 190 3.2 11.3 0.00 0.81 0.81 97 1006.9
20260506172610 16 217 3.2 12.9 0.00 0.81 0.81 98 1007.0
20260506172104 16 162 3.2 12.9 0.00 0.81 0.81 98 1006.9
20260506171603 16 190 1.6 9.7 0.00 0.81 0.81 98 1007.0
20260506171057 16 188 1.6 9.7 0.00 0.81 0.81 99 1007.0
20260506170551 16 188 1.6 9.7 0.00 0.81 0.81 99 1007.0
20260506170038 16 178 1.6 6.4 0.00 0.81 0.81 99 1007.0
20260506165538 16 177 0.0 4.8 0.00 0.81 0.81 99 1006.9
20260506165032 16 177 0.0 4.8 0.00 0.81 0.81 99 1007.0
20260506164758 16 169 1.6 11.3 0.00 0.81 0.81 99 1007.0
20260506164020 16 170 1.6 11.3 0.00 0.81 0.81 99 1007.0
20260506163510 16 138 1.6 11.3 0.00 0.81 0.81 99 1007.0
20260506163238 16 137 1.6 11.3 0.03 0.81 0.81 99 1007.1
20260506162735 16 128 1.6 12.9 0.03 0.81 0.81 99 1007.0
20260506162623 16 198 1.6 12.9 0.05 0.81 0.81 99 1007.1
20260506161451 16 210 0.0 4.8 0.08 0.81 0.81 100 1007.1
20260506160945 16 211 0.0 4.8 0.10 0.81 0.81 100 1007.2
20260506160438 16 211 0.0 6.4 0.15 0.81 0.81 100 1007.2
20260506155925 16 211 0.0 6.4 0.18 0.81 0.81 100 1007.2
20260506155427 16 212 0.0 4.8 0.20 0.81 0.81 100 1007.2
20260506154921 16 212 0.0 8.0 0.23 0.81 0.81 100 1007.2
20260506154415 16 212 0.0 8.0 0.30 0.81 0.81 99 1007.1
20260506154135 16 130 1.6 9.7 0.36 0.81 0.81 99 1007.0
20260506153356 16 130 1.6 11.3 0.38 0.81 0.81 99 1007.0
20260506152856 16 238 0.0 11.3 0.38 0.79 0.79 99 1006.8
20260506152351 16 136 1.6 11.3 0.41 0.79 0.79 99 1006.9
20260506151844 16 135 1.6 11.3 0.38 0.76 0.76 99 1006.8
20260506151339 16 199 0.0 4.8 0.36 0.74 0.74 99 1007.2
20260506150832 16 202 0.0 4.8 0.36 0.71 0.71 99 1007.4
20260506150327 16 202 0.0 4.8 0.30 0.66 0.66 98 1007.3
20260506145814 16 215 0.0 0.0 0.30 0.64 0.64 99 1007.6
20260506145315 16 215 0.0 0.0 0.30 0.61 0.61 98 1007.8
20260506144804 16 215 0.0 0.0 0.28 0.53 0.56 98 1007.9
20260506144302 16 215 0.0 4.8 0.25 0.48 0.48 98 1008.1
20260506143757 16 215 0.0 4.8 0.25 0.46 0.46 98 1008.2
20260506143244 16 213 1.6 11.3 0.25 0.43 0.43 98 1008.2
20260506142745 16 213 1.6 11.3 0.25 0.41 0.41 97 1008.1
20260506142509 16 158 0.0 8.0 0.23 0.38 0.38 97 1007.9
20260506141732 16 158 0.0 8.0 0.25 0.38 0.38 97 1007.6
20260506141227 16 156 0.0 3.2 0.25 0.38 0.38 97 1007.6
20260506140720 16 156 0.0 3.2 0.23 0.36 0.36 97 1007.5
20260506140215 16 156 0.0 0.0 0.23 0.36 0.36 97 1007.5
20260506135704 16 156 0.0 0.0 0.23 0.33 0.33 96 1007.5
20260506135434 16 156 0.0 0.0 0.20 0.30 0.30 96 1007.4
20260506134657 16 156 0.0 0.0 0.18 0.25 0.25 96 1007.5
20260506134150 16 156 0.0 0.0 0.13 0.20 0.20 95 1007.6
20260506133915 16 156 0.0 0.0 0.13 0.20 0.20 95 1007.7
20260506133132 16 156 0.0 0.0 0.10 0.18 0.18 95 1007.7
20260506132632 16 155 0.0 0.0 0.10 0.15 0.15 94 1007.7
20260506132358 16 155 0.0 0.0 0.08 0.13 0.13 94 1007.7
20260506131620 16 155 0.0 8.0 0.08 0.13 0.13 94 1007.6
20260506131345 16 155 0.0 8.0 0.08 0.13 0.13 93 1007.7
20260506130836 16 170 0.0 6.4 0.10 0.13 0.13 93 1007.6
20260506125550 16 170 0.0 0.0 0.08 0.10 0.10 92 1007.7
20260506125051 16 170 0.0 0.0 0.08 0.10 0.10 92 1007.8
20260506124549 16 170 0.0 0.0 0.05 0.08 0.08 92 1007.8
20260506124050 16 170 0.0 0.0 0.08 0.08 0.08 91 1007.8
20260506123549 17 170 0.0 0.0 0.08 0.08 0.08 90 1007.9
20260506123050 17 170 0.0 0.0 0.08 0.08 0.08 90 1008.0
20260506122547 17 170 0.0 0.0 0.05 0.05 0.05 90 1008.1
20260506122046 17 170 0.0 0.0 0.05 0.05 0.05 89 1008.2
20260506121817 17 170 0.0 0.0 0.05 0.05 0.05 88 1008.2
20260506121044 17 170 0.0 0.0 0.05 0.05 0.05 88 1008.2
20260506120543 17 170 0.0 0.0 0.03 0.03 0.03 87 1008.3
20260506120044 17 170 0.0 0.0 0.03 0.03 0.03 86 1008.2
20260506115540 17 170 0.0 0.0 0.03 0.03 0.03 84 1007.9
20260506115040 18 170 0.0 0.0 0.03 0.03 0.03 84 1007.8
20260506114541 18 170 0.0 0.0 0.03 0.03 0.03 83 1007.7
20260506114041 18 170 0.0 0.0 0.00 0.00 0.00 81 1007.7
20260506113930 18 170 0.0 0.0 0.00 0.00 0.00 79 1007.6
20260506113820 18 170 0.0 0.0 0.00 0.00 0.00 80 1007.6
20260506112801 18 257 0.0 0.0 0.00 0.00 0.00 78 1007.6
20260506112022 18 257 0.0 0.0 0.00 0.00 0.00 76 1007.6
20260506111743 19 257 0.0 12.9 0.00 0.00 0.00 75 1007.5
20260506111003 19 257 0.0 12.9 0.00 0.00 0.00 74 1007.5
20260506110504 19 259 0.0 4.8 0.00 0.00 0.00 73 1007.4
20260506110003 19 259 0.0 4.8 0.00 0.00 0.00 73 1007.3
20260506105504 19 260 0.0 11.3 0.00 0.00 0.00 73 1007.2
20260506105234 19 260 0.0 11.3 0.00 0.00 0.00 73 1007.1
20260506104737 19 220 0.0 9.7 0.00 0.00 0.00 72 1007.1
20260506104004 19 220 0.0 9.7 0.00 0.00 0.00 72 1007.0
20260506103502 20 223 0.0 8.0 0.00 0.00 0.00 72 1007.0
20260506103236 20 224 0.0 8.0 0.00 0.00 0.00 71 1006.9
20260506102458 19 263 0.0 3.2 0.00 0.00 0.00 71 1006.8
20260506102217 19 263 0.0 12.9 0.00 0.00 0.00 71 1006.8
20260506101448 20 264 0.0 12.9 0.00 0.00 0.00 71 1006.7
20260506100947 19 180 0.0 4.8 0.00 0.00 0.00 70 1006.7
20260506100448 20 179 0.0 4.8 0.00 0.00 0.00 70 1006.6
20260506095946 20 213 0.0 11.3 0.00 0.00 0.00 71 1006.5
20260506095449 20 216 0.0 11.3 0.00 0.00 0.00 70 1006.6
20260506094947 20 179 0.0 4.8 0.00 0.00 0.00 70 1006.6
20260506094447 20 179 0.0 8.0 0.00 0.00 0.00 69 1006.7
20260506093948 20 179 0.0 11.3 0.00 0.00 0.00 69 1006.6
20260506093442 20 278 1.6 11.3 0.00 0.00 0.00 68 1006.6
20260506092931 20 240 0.0 11.3 0.00 0.00 0.00 68 1006.7
20260506092431 20 191 0.0 6.4 0.00 0.00 0.00 67 1006.7
20260506091930 20 192 1.6 8.0 0.00 0.00 0.00 67 1006.8
20260506091431 20 192 0.0 8.0 0.00 0.00 0.00 67 1006.9
20260506090931 20 191 0.0 8.0 0.00 0.00 0.00 67 1007.0
20260506090705 20 190 0.0 6.4 0.00 0.00 0.00 66 1007.0
20260506085930 20 190 0.0 6.4 0.00 0.00 0.00 66 1007.0
20260506085432 20 250 0.0 14.5 0.00 0.00 0.00 66 1007.0
20260506085202 20 250 1.6 14.5 0.00 0.00 0.00 66 1007.0
20260506084426 20 213 1.6 9.7 0.00 0.00 0.00 66 1006.9
20260506083915 20 200 1.6 9.7 0.00 0.00 0.00 65 1006.8
20260506083416 20 166 0.0 8.0 0.00 0.00 0.00 65 1006.8
20260506082914 20 196 1.6 11.3 0.00 0.00 0.00 65 1006.8
20260506082415 20 196 1.6 11.3 0.00 0.00 0.00 65 1006.9
20260506081915 20 163 0.0 8.0 0.00 0.00 0.00 65 1006.9
20260506081417 21 242 0.0 9.7 0.00 0.00 0.00 65 1006.9
20260506080914 21 243 1.6 9.7 0.00 0.00 0.00 64 1006.9
20260506080415 21 156 1.6 12.9 0.00 0.00 0.00 64 1006.9